Vertical_Velocity
0 0 0 0 0 0 0 0 0 0 0 0 0 0 0 0 0 0 0 0 0 0 0 0 0 0 0 1 1 1 1 1 1 1 1 1 1 1 1 1 1 1 1 0 0 -0 0 1 1 1 1 1 0 0 -0 -0 -0 0 0 0 0 0 0 0 0 0 0 0 0 0 0 0 0 -0 -0 -0 -0 -0 -0 -0 -0 -1 -1 -1 -0 -0 -0 -0 -0 -0 -0 -0 -0 -0 -1 -1 -1 -1 -1 -1 -1 -1 -1
0 0 0 0 0 0 0 0 0 0 0 0 0 0 0 0 0 0 0 0 0 0 0 0 0 0 0 1 1 1 1 1 1 1 1 1 1 1 1 1 1 1 1 1 0 -0 -0 -0 -0 0 0 0 0 -0 -0 -0 -0 -0 -0 -0 -0 -0 0 0 0 0 0 0 0 0 0 0 0 0 -0 -0 -0 -0 -0 -0 -0 -0 -0 -0 -0 -0 -0 -0 -0 -0 -0 -0 -1 -1 -1 -1 -1 -1 -1 -2 -2 -1 -1
0 0 0 0 0 0 0 0 0 0 0 0 0 0 0 0 0 0 0 0 0 0 0 0 0 0 0 0 0 0 1 1 1 1 1 1 1 1 1 1 1 1 1 1 1 0 -0 -0 -1 -1 -0 -0 -0 -0 -0 -0 -0 -0 -1 -0 -0 -0 -0 -0 0 0 0 0 0 0 0 0 -0 -0 -0 -0 -0 -0 -0 -0 -0 -0 -0 -0 -0 -0 -0 -0 -0 -0 -0 -0 -1 -1 -1 -1 -1 -1 -1 -1 -2 -2 -2
-0 0 0 0 0 0 0 0 0 1 1 1 0 0 0 0 0 1 1 1 0 0 0 0 0 0 0 0 0 0 0 0 0 0 0 1 1 1 1 1 1 1 1 1 1 1 0 -0 -0 -0 -0 -0 -0 -0 0 -0 -0 -0 -0 -0 -0 -0 -0 -0 -0 -0 -0 -0 -0 -0 -0 -0 -0 -0 -0 -0 -0 -0 -0 -0 -0 -0 -0 -0 -0 -0 -0 -0 -0 -0 -0 -0 -0 -1 -1 -1 -0 -0 -0 -1 -1 -1 -2
-0 0 0 0 0 0 0 1 1 1 1 1 1 1 1 1 1 1 1 1 1 1 1 0 0 0 0 0 0 0 0 0 -0 -0 -0 0 0 1 1 1 1 1 1 1 1 1 1 0 0 0 -0 -0 -0 -0 -0 0 0 0 -0 -0 -0 -0 -0 -1 -1 -1 -1 -1 -1 -1 -1 -1 -1 -1 -1 -1 -1 -1 -1 -1 -1 -1 -1 -1 -1 -1 -1 -1 -1 -0 -0 -1 -1 -1 -1 -1 -1 -1 -0 -0 -0 -1 -1
-0 0 0 0 1 1 1 1 1 1 1 1 1 1 1 1 1 1 1 1 1 1 1 1 1 0 0 0 0 0 0 0 -0 -0 -0 -0 -0 0 0 1 1 1 1 1 1 1 1 1 1 0 0 0 -0 -0 -0 -0 -0 -0 -0 -0 -0 -0 -0 -1 -1 -1 -1 -1 -1 -1 -1 -1 -1 -1 -1 -1 -1 -1 -1 -1 -1 -1 -1 -1 -1 -1 -1 -1 -1 -1 -1 -1 -1 -1 -1 -1 -2 -2 -1 -1 -1 -1 -1
0 0 0 1 1 1 1 1 1 1 1 1 1 1 1 1 1 1 1 1 1 1 1 1 1 1 1 1 1 0 0 0 0 0 -0 -0 -0 -0 0 0 0 0 0 1 1 1 1 1 1 1 0 0 -0 -0 -0 -0 -0 -0 -0 -0 -0 -0 -0 -0 -1 -1 -1 -1 -1 -1 -1 -1 -1 -1 -1 -1 -1 -1 -1 -1 -1 -1 -1 -1 -1 -1 -1 -1 -1 -1 -1 -1 -1 -1 -1 -1 -2 -2 -2 -2 -2 -2 -2
0 0 1 1 1 1 1 1 1 1 1 1 1 1 1 1 1 1 1 1 1 1 1 1 1 1 1 1 1 1 1 0 0 0 0 -0 -0 -0 -0 -0 -0 -0 -0 -0 -0 0 0 0 0 0 0 0 -0 -0 -0 -0 -1 -1 -0 -0 -0 -0 -0 -1 -1 -1 -1 -1 -1 -1 -1 -1 -1 -1 -1 -1 -1 -1 -1 -1 -1 -1 -1 -1 -1 -1 -2 -2 -2 -2 -1 -1 -1 -1 -1 -1 -1 -1 -2 -2 -2 -2 -2
1 1 1 1 1 1 1 1 1 1 1 1 1 1 1 1 1 1 1 1 1 1 1 1 1 1 1 1 1 1 1 1 0 0 0 0 -0 -0 -0 -0 -0 -0 -0 -0 -0 -0 -0 -0 -0 -0 -0 -0 -0 -0 -0 -1 -1 -1 -1 -1 -1 -1 -1 -1 -1 -1 -1 -1 -1 -1 -1 -1 -1 -1 -1 -1 -1 -1 -1 -1 -1 -1 -1 -1 -1 -1 -1 -1 -2 -2 -2 -1 -1 -1 -1 -1 -1 -1 -1 -1 -2 -2 -2
1 1 1 1 1 1 1 1 1 1 1 1 1 1 1 1 1 1 1 1 1 1 1 1 1 1 1 1 1 1 1 1 0 0 0 0 -0 -0 -0 -0 -0 -0 -1 -1 -1 -1 -1 -1 -1 -1 -1 -1 -1 -1 -1 -1 -1 -1 -1 -1 -1 -1 -1 -1 -1 -1 -1 -1 -1 -1 -1 -1 -1 -1 -1 -1 -1 -1 -1 -1 -1 -1 -1 -1 -1 -1 -1 -1 -1 -1 -1 -1 -1 -1 -1 -1 -1 -1 -1 -1 -1 -1 -1
1 1 1 1 1 1 1 1 1 1 1 1 1 1 1 1 1 1 1 1 1 1 1 1 1 1 1 1 1 1 1 0 0 0 0 0 -0 -0 -0 -0 -0 -0 -0 -0 -1 -1 -1 -1 -1 -0 -0 -0 -0 -0 -0 -0 -0 -0 -0 -0 -1 -1 -1 -1 -1 -1 -1 -1 -1 -1 -1 -1 -1 -1 -1 -1 -1 -1 -1 -1 -1 -1 -1 -1 -1 -1 -1 -1 -1 -1 -1 -1 -1 -1 -1 -1 -1 -1 -1 -1 -1 -1 -1
1 1 1 1 1 1 1 1 1 1 1 1 1 1 1 1 1 1 1 1 1 1 1 1 1 1 1 1 1 1 1 0 0 0 0 -0 -0 -0 -0 -0 -0 -0 -0 -0 -0 -0 -0 -0 -0 -0 -0 -0 0 0 0 0 0 0 0 -0 -0 -0 -0 -0 -0 -0 -0 -0 -1 -1 -1 -1 -1 -1 -1 -1 -1 -1 -1 -1 -1 -1 -1 -1 -1 -1 -1 -1 -1 -1 -1 -1 -2 -2 -2 -2 -1 -1 -1 -1 -1 -1 -1
1 1 1 1 1 1 1 1 1 1 1 1 1 1 1 1 1 1 1 1 1 1 1 1 1 1 1 1 1 1 1 0 0 0 0 -0 -0 -0 0 0 -0 -0 -0 -0 0 0 0 0 0 0 0 0 0 0 0 0 0 0 0 0 0 0 0 0 -0 -0 -0 -0 -0 -0 -0 -1 -1 -1 -1 -1 -1 -1 -1 -1 -1 -1 -1 -1 -1 -1 -1 -1 -1 -1 -2 -2 -2 -2 -2 -2 -2 -2 -2 -2 -2 -2 -1
1 1 1 1 1 1 1 1 1 1 1 1 1 1 1 1 1 1 1 1 1 1 1 1 1 1 1 1 1 1 0 0 0 0 0 -0 -0 -0 -0 0 0 0 -0 0 0 0 1 1 1 1 1 1 1 1 1 1 0 0 0 0 0 0 0 0 0 -0 -0 -0 -0 -0 -0 -0 -0 -0 -0 -0 -0 -0 -0 -1 -1 -1 -1 -1 -1 -1 -1 -1 -1 -1 -1 -2 -2 -2 -2 -2 -2 -2 -2 -2 -2 -2 -2
1 1 1 1 1 1 1 1 1 1 1 1 1 1 0 1 1 1 1 1 1 1 1 1 1 1 1 1 1 1 1 0 0 0 -0 -0 -0 -0 -0 0 0 0 0 0 1 1 1 1 1 1 1 1 1 1 1 1 0 0 0 0 0 0 0 0 0 -0 -0 -0 -0 -0 -0 -0 -0 -0 -0 -0 -0 -0 -0 -0 -0 -1 -1 -0 -0 -0 -1 -1 -1 -1 -1 -1 -2 -2 -2 -1 -1 -1 -1 -2 -2 -2 -2
1 1 1 1 1 1 1 1 1 1 1 1 1 0 0 0 0 0 1 1 1 1 0 1 1 1 1 1 1 1 1 0 0 0 0 -0 -0 -0 -0 0 0 1 1 1 1 1 1 1 1 1 1 1 1 1 1 1 1 0 0 0 0 -0 -0 -0 -0 -0 -0 -0 -0 -0 -0 -0 -0 -0 -0 -0 -0 -0 -0 -0 -0 -0 -1 -0 -0 -0 -1 -1 -1 -1 -1 -1 -1 -2 -2 -2 -1 -1 -0 -1 -1 -2 -2
1 1 1 1 1 1 1 1 1 1 1 1 0 0 0 0 0 0 0 0 0 0 0 0 1 1 1 1 1 1 1 1 0 0 0 0 0 0 0 0 1 1 1 1 1 1 1 1 1 1 1 1 1 1 1 1 1 1 0 0 0 -0 -0 -0 -0 -0 -0 -0 -1 -1 -1 -1 -1 -1 -1 -1 -1 -1 -0 -0 -0 -0 -0 -1 -1 -1 -1 -1 -1 -1 -1 -1 -1 -2 -2 -2 -2 -1 -1 -1 -1 -1 -2
1 1 1 1 1 1 1 1 1 1 1 1 0 0 0 0 0 0 0 0 0 0 0 0 0 0 0 1 1 1 1 1 1 1 1 0 0 0 0 0 0 1 1 2 2 1 1 1 1 1 1 1 1 0 0 0 0 1 1 0 0 -0 -0 -0 -0 -1 -1 -1 -1 -1 -1 -1 -1 -1 -1 -1 -1 -1 -1 -1 -1 -1 -1 -1 -1 -1 -1 -1 -1 -1 -1 -1 -1 -1 -2 -2 -2 -2 -2 -1 -1 -1 -2
1 1 1 1 1 1 1 1 1 1 1 1 0 0 0 0 0 0 0 0 0 0 0 0 0 0 1 1 1 1 1 1 1 1 1 1 1 0 0 -0 -0 -0 0 1 1 2 1 1 1 0 0 0 -0 -0 -0 -0 -0 -0 0 0 0 -0 -0 -1 -1 -1 -1 -1 -1 -1 -1 -1 -1 -1 -1 -1 -1 -1 -1 -1 -1 -1 -1 -1 -1 -1 -1 -1 -2 -2 -2 -1 -1 -1 -1 -2 -2 -2 -2 -2 -2 -1 -1
1 1 1 1 1 1 1 1 1 1 1 1 1 1 1 1 0 0 0 1 0 0 0 0 1 1 1 1 1 1 1 1 1 1 1 1 1 0 0 -0 -0 -1 -1 -0 0 1 1 1 1 0 -0 -0 -0 -0 -1 -1 -1 -1 -1 -0 -0 -0 -1 -1 -1 -1 -1 -1 -1 -1 -1 -1 -1 -1 -1 -1 -1 -1 -1 -1 -1 -1 -1 -1 -1 -1 -1 -2 -2 -2 -2 -2 -1 -1 -1 -2 -2 -2 -2 -2 -2 -2 -1
1 1 1 1 1 1 1 1 1 1 1 1 1 1 1 1 1 1 1 1 1 1 1 1 1 1 0 1 1 1 1 1 1 1 1 1 1 1 0 -0 -0 -1 -1 -1 -1 -1 0 1 1 1 -0 -0 -1 -1 -1 -1 -1 -1 -1 -1 -1 -1 -1 -1 -1 -1 -1 -1 -1 -1 -1 -1 -1 -1 -1 -1 -1 -1 -1 -1 -1 -1 -1 -1 -1 -1 -1 -2 -2 -2 -2 -2 -2 -1 -1 -1 -2 -2 -2 -2 -2 -2 -2
1 1 1 1 1 1 1 1 1 1 1 1 1 1 1 1 1 1 1 1 1 1 1 1 1 0 0 0 0 0 1 1 1 1 1 1 1 1 1 0 -0 -0 -1 -1 -1 -1 -1 -0 0 1 0 -0 -1 -1 -1 -1 -1 -1 -1 -1 -1 -1 -1 -1 -1 -1 -1 -1 -1 -1 -1 -1 -1 -1 -1 -1 -1 -1 -1 -1 -1 -1 -1 -1 -1 -2 -2 -2 -2 -2 -2 -2 -2 -2 -1 -1 -2 -2 -2 -2 -2 -2 -2
1 1 1 1 1 1 1 1 1 1 1 1 1 1 0 1 1 1 1 1 1 1 1 1 0 0 0 0 0 0 0 0 1 1 0 0 1 1 1 1 0 -0 -1 -1 -1 -1 -2 -1 -1 -0 0 -0 -0 -1 -1 -1 -1 -1 -1 -1 -1 -1 -1 -1 -1 -1 -1 -1 -1 -1 -1 -1 -1 -1 -1 -1 -1 -1 -1 -1 -1 -1 -1 -1 -1 -2 -2 -2 -2 -2 -2 -2 -2 -2 -2 -2 -2 -2 -2 -2 -2 -2 -2
0 0 0 0 1 1 1 1 1 1 0 1 1 0 0 0 1 1 1 1 1 1 1 0 0 0 0 0 -0 -0 -0 -0 0 0 0 -0 0 0 0 1 0 -0 -0 -1 -1 -2 -2 -2 -1 -1 -0 -0 -0 -1 -1 -1 -1 -1 -1 -1 -1 -1 -1 -1 -0 -0 -0 -1 -1 -1 -1 -1 -1 -1 -1 -1 -1 -1 -1 -1 -1 -1 -1 -1 -1 -1 -2 -2 -2 -2 -2 -2 -2 -2 -2 -2 -2 -2 -2 -2 -2 -2 -2
-0 0 0 0 0 1 1 1 1 0 0 0 0 0 0 0 0 0 0 0 0 0 0 0 0 0 0 0 0 0 -0 -0 -0 -0 -0 -0 -0 -0 0 0 0 0 -0 -1 -1 -1 -2 -2 -2 -1 -1 -1 -0 -1 -1 -1 -1 -1 -1 -1 -1 -1 -0 -0 -0 -0 -0 -0 -0 -0 -1 -1 -1 -1 -1 -1 -1 -1 -1 -1 -1 -1 -1 -1 -1 -1 -1 -2 -2 -2 -2 -2 -1 -1 -1 -1 -2 -2 -2 -2 -2 -2 -2
-0 -0 -0 0 0 1 1 1 0 0 0 0 0 0 0 0 0 0 0 0 0 0 -0 0 0 0 1 0 0 0 1 0 0 0 0 0 0 0 -0 0 0 1 0 -0 -1 -1 -1 -2 -2 -2 -1 -1 -1 -1 -1 -1 -1 -1 -1 -1 -1 -1 -1 -0 -0 -0 -0 -0 -0 -0 -0 -1 -1 -1 -1 -1 -1 -1 -1 -1 -1 -1 -1 -1 -1 -1 -1 -2 -2 -2 -2 -2 -1 -1 -1 -1 -1 -1 -2 -2 -2 -2 -2
-0 -0 -0 0 0 1 1 1 1 0 0 0 1 1 0 0 0 0 0 0 -0 -0 -0 -0 -0 -0 0 0 0 0 1 1 1 1 1 1 1 1 0 0 0 1 1 0 -0 -1 -1 -1 -1 -2 -2 -1 -1 -1 -1 -1 -1 -1 -1 -1 -1 -1 -1 -1 -0 -0 -0 -0 -0 -0 -0 -0 -0 -1 -1 -1 -1 -1 -1 -1 -1 -1 -1 -1 -1 -1 -1 -2 -2 -2 -2 -2 -1 -1 -1 -1 -1 -1 -1 -1 -2 -2 -2
0 0 0 0 0 0 1 1 1 1 1 1 1 1 1 0 0 0 0 0 0 -0 -0 -1 -1 -1 -1 -1 -1 -1 -0 -0 0 0 0 0 0 0 0 0 0 0 1 1 0 -0 -1 -1 -1 -1 -2 -1 -1 -1 -1 -1 -1 -1 -1 -1 -1 -1 -1 -1 -1 -1 -0 -0 -0 -0 -0 -0 -0 -0 -0 -1 -1 -1 -1 -1 -1 -1 -1 -1 -1 -1 -1 -2 -2 -2 -2 -2 -1 -1 -1 -1 -1 -1 -1 -1 -1 -1 -1
0 0 1 0 0 0 0 0 0 0 1 1 1 1 1 1 1 0 0 0 0 0 0 -0 -1 -1 -1 -1 -1 -1 -1 -1 -1 -1 -1 -1 -1 -1 -0 -0 -0 -0 0 0 0 -0 -1 -1 -1 -1 -1 -1 -1 -1 -1 -1 -0 -0 -1 -1 -1 -1 -1 -1 -1 -1 -1 -1 -1 -1 -1 -0 -0 -0 -0 -0 -0 -0 -1 -1 -1 -1 -1 -1 -0 -1 -1 -1 -1 -2 -2 -2 -1 -1 -1 -1 -1 -1 -1 -1 -1 -1 -1
0 1 1 1 1 0 -0 -0 -0 -0 -0 0 1 1 1 1 1 0 -0 0 0 0 0 0 -0 -0 -0 -0 -0 -0 -1 -1 -1 -1 -2 -2 -1 -1 -1 -1 -1 -0 -0 0 1 1 -0 -1 -1 -1 -1 -1 -1 -1 -1 -1 -0 -0 -0 -0 -1 -1 -1 -1 -1 -1 -1 -1 -1 -1 -1 -1 -1 -0 -0 0 0 0 -0 -0 -1 -1 -1 -1 -0 -0 -0 -0 -1 -1 -1 -1 -1 -1 -1 -1 -1 -0 -0 -0 -1 -1 -1
0 1 1 1 1 1 0 -0 -0 -0 -0 -0 -0 -0 0 1 1 0 -0 -0 -0 0 1 1 1 1 1 1 1 0 -0 -0 -0 -1 -1 -1 -1 -1 -1 -1 -1 -1 -0 0 1 1 1 0 -0 -1 -1 -1 -1 -1 -1 -1 -1 -0 -0 -0 -0 -0 -1 -1 -1 -1 -1 -1 -1 -1 -1 -1 -1 -1 -1 -0 -0 0 0 -0 -0 -1 -1 -1 -1 -0 -0 -0 -0 -0 -0 -1 -1 -1 -1 -1 -1 -1 -0 -0 -0 -1 -1
-0 0 0 0 1 1 1 0 -0 -0 -0 -0 -0 -0 -0 1 1 1 0 0 -0 -0 0 1 1 1 1 1 1 1 0 -0 -1 -1 -1 -1 -1 -1 -1 -1 -1 -1 -1 -0 0 1 1 1 1 0 -0 -0 -1 -1 -1 -1 -1 -1 -0 -0 -0 -0 -0 -1 -1 -1 -1 -1 -1 -1 -0 -0 -1 -1 -1 -1 -1 -1 -0 -0 -0 -1 -1 -1 -1 -1 -1 -1 -0 0 0 0 -0 -1 -1 -1 -1 -1 -1 -0 -0 -0 -0
-0 -0 -0 0 0 0 0 0 -0 -0 -0 -0 -1 -0 -0 1 1 1 1 1 0 -0 -1 -0 -0 0 1 1 1 0 0 -0 -0 -1 -1 -1 -1 -1 -1 -0 -1 -1 -1 -1 -0 -0 1 1 1 1 0 0 -0 -0 -1 -1 -1 -1 -1 -1 -0 -0 -0 -0 -0 -1 -1 -1 -1 -1 -0 -0 -0 -0 -1 -1 -1 -1 -1 -1 -1 -1 -1 -1 -1 -1 -2 -1 -1 -0 -0 0 0 0 -0 -1 -1 -1 -1 -1 -0 -0 -0
-1 -0 -0 -0 -0 -0 -0 0 -0 -0 -0 -1 -1 -1 -1 -0 1 1 1 1 -0 -1 -2 -2 -2 -2 -1 -1 -0 -0 0 0 0 -0 -0 -1 -0 -0 -0 -0 -0 -0 -0 -1 -1 -1 -0 0 1 1 1 1 1 0 -0 -0 -1 -1 -1 -1 -1 -0 -0 -0 -0 -0 -0 -0 -0 -0 -0 -0 -0 -0 -0 -0 -1 -1 -2 -2 -2 -2 -2 -2 -2 -2 -2 -2 -2 -2 -1 -1 -0 0 0 -0 -0 -1 -1 -1 -0 -0 0
-1 -1 -0 -0 -0 -0 -0 -0 0 0 0 -0 -1 -1 -1 -1 -1 -0 0 -0 -1 -1 -2 -2 -3 -3 -3 -2 -2 -1 -0 0 0 0 -0 -1 -1 -1 -0 -0 -0 -0 -0 -0 -0 -0 -0 0 0 0 0 1 1 1 1 0 -0 -1 -1 -1 -1 -1 -0 -0 -0 0 0 -0 -0 -0 -0 -0 -0 -0 -0 -0 -0 -1 -1 -1 -2 -2 -2 -2 -2 -2 -2 -2 -2 -2 -2 -2 -2 -1 -1 -0 -0 -1 -1 -1 -1 -0 -0
-0 -0 -1 -0 -0 -0 -1 -1 -0 0 1 1 0 -1 -1 -2 -2 -2 -1 -1 -1 -1 -1 -2 -2 -2 -3 -2 -2 -2 -1 -1 -0 -0 -0 -1 -1 -1 -1 -1 -1 -1 -0 -1 -1 -0 -0 -0 -0 0 0 0 0 1 1 0 0 -0 -1 -1 -1 -1 -0 -0 -0 -0 -0 -0 -0 -0 -0 -0 -0 -0 0 0 0 -0 -0 -1 -1 -2 -2 -2 -2 -2 -2 -2 -2 -2 -2 -2 -2 -3 -3 -2 -2 -1 -1 -1 -1 -1 -0
-0 -0 -0 -0 -0 -0 -0 -1 -1 -1 -0 0 0 -0 -1 -2 -2 -2 -1 -1 -1 -1 -1 -1 -1 -1 -2 -2 -2 -2 -2 -2 -1 -1 -1 -1 -1 -2 -2 -2 -2 -2 -2 -1 -1 -1 -1 -1 -0 -0 0 0 0 0 0 0 0 -0 -1 -1 -1 -1 -1 -1 -0 -0 -0 -0 -0 -0 -0 -0 -0 0 0 0 0 0 0 -0 -0 -1 -1 -1 -2 -2 -1 -1 -1 -2 -2 -2 -2 -2 -3 -3 -3 -3 -3 -2 -2 -1 -1
-0 -0 -1 -1 -1 -0 -1 -1 -1 -2 -2 -1 -0 -0 -0 -1 -1 -1 -0 -0 -0 -0 -0 -0 -1 -1 -1 -1 -2 -2 -2 -2 -2 -2 -2 -1 -1 -1 -2 -2 -2 -2 -3 -2 -2 -1 -1 -1 -1 -1 -0 0 0 0 -0 -0 -0 -0 -0 -1 -1 -1 -1 -1 -1 -1 -1 -1 -1 -1 -1 -1 -0 0 0 1 1 1 1 0 0 -0 -0 -1 -1 -1 -1 -1 -1 -1 -1 -1 -1 -1 -2 -2 -3 -4 -5 -4 -4 -3 -2
-0 -0 -1 -1 -1 -1 -1 -1 -1 -2 -2 -2 -2 -1 -0 -0 -0 -0 0 0 -0 -0 -0 -0 -1 -1 -1 -1 -1 -1 -1 -2 -2 -2 -2 -1 -1 -1 -1 -1 -2 -2 -3 -2 -2 -2 -1 -2 -1 -1 -1 -0 0 0 -0 -0 -0 -1 -1 -1 -1 -1 -1 -1 -1 -1 -1 -1 -1 -1 -1 -1 -0 -0 0 1 1 1 1 1 0 0 -0 -0 -0 -0 -1 -1 -1 -1 -1 -1 -1 -1 -1 -0 -1 -2 -4 -5 -5 -4 -3
-0 -0 -0 -1 -1 -1 -1 -1 -1 -1 -2 -2 -2 -2 -1 -1 -1 -1 -0 0 0 0 0 0 -0 -1 -1 -1 -1 -1 -1 -1 -1 -2 -2 -1 -1 -1 -1 -1 -1 -2 -2 -2 -2 -2 -2 -1 -1 -1 -1 -1 -0 0 0 -0 -0 -1 -1 -1 -1 -1 -1 -1 -1 -1 -1 -1 -1 -1 -1 -1 -1 -0 -0 0 1 1 1 1 1 0 0 -0 -0 -0 -0 -1 -1 -1 -1 -1 -1 -1 -1 -0 0 -0 -1 -3 -4 -4 -4
-0 -0 -0 -0 -0 -0 -0 -0 -0 -1 -1 -1 -1 -1 -1 -1 -1 -1 -1 -0 -0 0 0 0 -0 -1 -1 -1 -1 -1 -1 -1 -1 -1 -1 -1 -1 -1 -1 -1 -1 -1 -1 -1 -1 -1 -1 -1 -1 -1 -1 -1 -0 0 0 -0 -0 -0 -1 -1 -1 -1 -1 -1 -1 -1 -1 -1 -1 -1 -1 -1 -1 -1 -1 -0 0 1 1 1 1 1 0 0 -0 -0 -0 -1 -1 -1 -1 -1 -1 -1 -1 -0 0 1 0 -1 -2 -2 -3
-1 -1 -0 -0 -0 -0 0 0 0 0 0 -0 -1 -1 -1 -1 -1 -1 -1 -1 -1 -0 -0 0 0 -0 -1 -1 -1 -1 -1 -1 -0 -0 -1 -1 -1 -0 -0 -0 -0 -1 -1 -1 -1 -1 -1 -1 -1 -1 -1 -1 -0 -0 -0 0 0 -0 -0 -1 -1 -1 -1 -1 -1 -1 -1 -1 -1 -1 -1 -1 -1 -1 -1 -1 -0 -0 0 1 1 1 0 0 0 -0 -0 -1 -1 -1 -1 -1 -1 -1 -1 -1 -0 0 1 -0 -1 -1 -1
-1 -1 -1 -1 -0 -0 0 0 0 0 0 -0 -0 -1 -1 -1 -1 -1 -1 -1 -1 -1 -1 0 0 0 -1 -1 -1 -1 -0 -1 -0 -0 0 -0 -0 -0 -0 -0 -0 -1 -1 -1 -1 -1 -1 -1 -1 -1 -1 -1 -1 -1 -1 -0 -0 -0 -0 -1 -1 -1 -1 -1 -1 -1 -1 -1 -1 -1 -1 -1 -1 -1 -1 -0 -0 -0 -0 0 0 0 0 0 0 0 0 -0 -1 -1 -1 -1 -1 -0 -1 -1 -0 -0 0 0 0 -0 -1
-1 -1 -1 -1 -1 -0 -0 0 0 0 0 -0 -0 -0 -0 -1 -1 -1 -1 -1 -1 -1 -2 -0 0 1 -0 -1 -1 -1 -0 -0 -0 -0 0 0 0 0 0 0 -0 -1 -2 -1 -1 -1 -1 -2 -2 -2 -1 -1 -1 -1 -2 -1 -1 -0 -1 -1 -1 -1 -1 -1 -1 -1 -1 -0 -0 -0 -0 -0 -0 -0 -0 -0 -0 -0 -0 -0 -0 -0 -0 0 0 0 0 -0 -0 -1 -1 -1 -1 -1 -1 -1 -1 -0 0 1 1 0 -0
-0 -0 -0 -0 -0 -0 -0 -0 -0 0 -0 -0 -0 -1 -1 -1 -0 -0 -1 -1 -1 -1 -2 -1 -0 1 0 -1 -1 -1 -0 0 0 -0 -0 0 0 1 1 0 -0 -1 -1 -2 -1 -1 -1 -2 -2 -2 -2 -1 -1 -1 -2 -2 -1 -1 -1 -1 -1 -1 -1 -2 -2 -1 -1 -0 -0 -0 -0 -0 -0 0 0 0 0 0 -0 -0 -1 -1 -1 -0 -0 -0 -0 -0 -0 -1 -1 -1 -1 -1 -1 -1 -1 -0 0 1 2 1 1
0 0 0 -0 -0 -0 -0 -0 -0 -0 -0 -0 -1 -1 -1 -1 -1 -0 -0 -1 -0 -0 -1 -1 -1 -1 -0 -0 -1 -1 -1 0 1 0 -0 -0 0 0 1 0 -0 -0 -1 -1 -1 -1 -1 -2 -3 -3 -2 -2 -2 -2 -2 -2 -2 -1 -1 -1 -1 -1 -1 -2 -2 -1 -1 -1 -0 -0 -0 -0 -0 0 0 0 0 0 -0 -0 -1 -1 -1 -1 -1 -1 -1 -0 -1 -1 -1 -0 -0 -0 -1 -1 -1 -0 0 1 2 2 2
0 0 0 0 -0 -0 -0 0 0 -0 -0 -1 -1 -1 -1 -1 -1 -0 -0 -0 -0 -0 -0 -1 -1 -2 -2 -1 -1 -0 -0 0 1 0 -0 -0 -0 0 -0 -0 -0 -0 -0 -1 -1 -1 -1 -2 -2 -3 -2 -2 -2 -2 -2 -2 -2 -1 -1 -1 -1 -0 -1 -1 -1 -1 -1 -0 -0 -0 -0 -0 -0 -0 -0 -0 0 -0 -0 -1 -1 -1 -1 -1 -1 -1 -1 -1 -1 -1 -1 -1 -0 -0 -0 -0 -0 -0 0 1 1 2 2
-0 0 0 -0 -0 0 -0 0 0 0 -0 -0 -1 -1 -2 -2 -1 -0 -0 -0 -0 -1 -1 -0 -1 -2 -3 -3 -2 -1 0 0 0 0 -0 -2 -2 -1 1 0 -0 -1 -0 0 0 -0 -0 -1 -1 -2 -2 -2 -2 -2 -2 -1 -1 -1 -1 -1 -0 -1 -1 -1 -1 -1 -0 -0 -0 -0 -0 -0 -0 -1 -0 -0 -0 -0 -0 -0 -0 -1 -1 -1 -1 -1 -1 -1 -0 -0 -1 -1 -0 -0 0 0 0 0 0 1 1 2 2
-1 -0 -0 -0 0 0 -0 -0 0 0 -0 -1 -1 -2 -3 -2 -1 -1 -1 -0 -0 -1 -1 -0 -0 -1 -2 -4 -4 -2 0 0 0 0 1 -1 -3 -3 -1 1 1 -0 -1 0 1 1 0 0 -0 -1 -1 -1 -1 -1 -2 -1 -1 -1 -1 -0 -0 -0 -1 -1 -1 -1 -0 -0 -0 -0 -0 -0 -0 -0 -0 -0 -0 -0 -0 -0 -0 -0 -0 -0 -1 -1 -1 -0 -0 -0 -0 -0 -0 -0 -0 -0 -0 -0 0 0 0 1 1
-1 -1 -0 -0 0 0 -0 -0 -0 0 -0 -1 -2 -3 -4 -3 -2 -2 -1 -1 -1 -1 -1 -1 -1 -0 -0 -3 -4 -3 -0 0 0 0 -0 -1 -1 -1 -2 -1 0 1 -0 0 1 2 1 1 0 0 0 0 -0 -1 -1 -1 -1 -1 -1 -0 -0 -0 -1 -1 -1 -1 -1 -0 -0 -0 0 0 1 1 1 1 1 1 0 0 0 0 -0 -0 -0 -0 -0 -0 0 0 0 0 -0 -0 -0 -0 -0 -0 -0 -0 -0 -0 0
-1 -1 -1 -0 -0 0 -0 -0 -0 0 -0 -1 -2 -3 -3 -3 -3 -2 -1 -1 -1 -1 1 -1 -2 -2 1 -1 -4 -4 -0 -1 1 1 -1 -4 -1 2 2 -1 -1 -1 -1 -1 1 2 3 2 1 1 1 1 1 0 -0 -1 -1 -1 -1 -1 -1 -1 -1 -1 -1 -1 -1 -1 -0 -0 0 1 1 2 2 2 2 1 1 1 0 0 -0 -0 -0 -0 -0 -0 0 0 0 0 0 0 0 -0 -0 -0 -0 -0 -0 -0 -1
-1 -1 -1 -1 -0 -0 -0 0 0 0 0 -0 -1 -3 -3 -3 -3 -2 -1 -0 -1 -1 1 0 -2 -3 -2 -0 -3 -4 -2 -1 -0 1 1 -3 -3 -0 3 3 0 -2 -3 -2 -3 -2 2 2 2 2 3 1 0 0 -0 -0 -1 -1 -2 -1 -1 -1 -1 -1 -1 -1 -1 -1 -1 -0 0 1 1 2 2 2 2 2 2 1 1 0 -0 -1 -1 -1 -1 -1 -0 -0 0 0 0 1 1 0 0 -0 0 0 0 0 -0
-2 -2 -2 -1 -1 -1 0 1 1 1 2 1 -0 -2 -3 -2 -2 -2 -1 -1 -1 -1 0 0 -0 -1 -4 -3 -3 -4 -5 -1 -0 -0 0 -0 -2 -3 -2 4 3 -0 -2 1 -4 -8 -4 -1 -0 -0 1 1 1 -0 -1 -1 -1 -1 -1 -1 -1 -2 -2 -1 -1 -1 -1 -1 -1 -0 0 1 1 2 2 2 2 2 2 1 1 0 -1 -1 -1 -1 -1 -1 -1 -1 -0 -0 0 1 1 1 0 0 -0 -0 0 0 1
-2 -2 -2 -2 -2 -1 0 1 1 2 3 2 1 -1 -2 -2 -2 -2 -1 -1 -1 -1 -0 -1 0 1 -2 -4 -4 -3 -5 -2 -0 -0 -1 -1 1 1 -4 -2 1 2 1 4 2 -4 -10 -3 -1 -1 -4 -0 1 1 0 -0 -1 -1 -1 -1 -1 -1 -1 -1 -1 -1 -1 -1 -1 -0 0 0 1 1 2 2 2 2 2 1 1 0 0 -0 -0 -0 -0 -0 -0 -0 -0 -0 0 1 1 1 1 0 -0 -0 -0 -0 0
-1 -1 -2 -2 -2 -1 -1 1 2 2 2 3 2 1 -1 -1 -1 -1 -0 -0 -0 -0 0 -1 -1 0 1 -3 -4 -4 -3 -3 -1 0 -1 -2 1 4 1 -3 -4 -3 -2 2 4 2 -4 -3 -2 -2 -4 -2 0 1 0 -0 -0 0 0 -0 -1 -1 -1 -1 -1 -1 -2 -2 -1 -0 0 0 1 1 2 2 2 2 1 1 1 1 1 1 1 1 1 1 0 0 0 0 0 1 1 1 1 0 -0 -1 -1 -0 -0
-0 -1 -1 -1 -1 -2 -1 1 2 2 2 3 3 2 0 -1 -1 -0 1 1 0 0 -0 -1 -2 -1 0 -1 -3 -5 -4 -4 -2 0 2 -1 -1 1 4 2 -1 -3 -4 -3 -2 -0 1 2 0 -2 -5 -1 1 2 -0 -0 1 1 0 0 -0 -1 -1 -1 -1 -2 -2 -2 -1 -1 -0 0 0 1 1 1 1 1 1 0 0 1 1 2 2 2 2 1 1 1 1 1 1 1 1 1 1 0 -0 -1 -1 -1 -0
1 1 -0 -0 -1 -1 -1 0 1 1 2 3 3 2 1 0 0 1 1 1 1 -0 -1 -0 -1 -2 -2 -0 -2 -4 -5 -5 -4 -2 4 2 1 -0 1 2 1 1 1 -2 -3 -4 -4 3 4 1 -6 -2 2 2 0 1 1 1 1 0 -0 -1 -1 -1 -1 -1 -2 -2 -1 -1 -1 0 0 0 0 0 0 -1 -1 -1 -1 -0 1 1 2 2 1 1 1 1 1 1 1 1 1 1 0 0 -0 -0 -1 -1 -0
1 1 0 0 -0 -0 -0 0 1 1 2 3 3 2 1 1 1 1 1 1 0 -1 -1 -0 -0 -1 -3 -2 -1 -2 -3 -4 -4 -3 0 3 4 2 -0 -1 -1 0 2 1 0 -1 -4 -1 1 1 -2 -2 -1 0 2 2 1 1 1 1 0 -0 -1 -1 -1 -1 -1 -1 -0 0 0 1 1 0 -0 -0 -1 -2 -2 -2 -2 -1 -0 0 1 1 1 0 0 0 1 1 1 1 1 1 0 0 -0 -0 -0 -0 -0
1 1 1 0 0 0 0 0 0 1 2 2 3 2 1 0 0 1 1 1 0 -1 -0 -0 -0 -1 -1 -2 -1 -0 -1 -2 -2 -2 -1 2 3 3 3 0 -0 0 0 -0 0 1 0 -1 -2 -2 1 -1 -3 -3 0 2 1 1 1 1 1 1 1 -0 -1 -1 -1 -0 1 2 2 2 2 1 0 -1 -1 -2 -3 -3 -3 -2 -1 -0 0 0 0 0 -0 -0 -0 0 1 1 1 1 0 0 -0 -0 -0 -0 -0
-0 -0 -0 -0 0 1 1 1 1 1 2 2 2 1 1 -0 -0 1 2 1 1 0 1 0 -0 -0 0 0 0 1 1 -1 -2 -2 1 1 -0 -0 4 2 1 0 0 -1 -1 -0 0 1 -0 -1 -1 -2 -3 -3 -2 -0 1 1 2 2 2 2 2 0 -1 -1 -1 0 1 3 3 3 3 2 1 -0 -1 -2 -3 -3 -3 -2 -2 -1 -0 0 0 0 0 0 0 0 0 0 0 -0 -0 -0 -0 -0 -0 -0 0
-2 -2 -1 1 2 3 2 2 2 2 2 2 1 1 1 1 1 2 3 2 1 1 1 1 1 1 1 1 2 2 2 1 -1 -3 -1 1 -1 -2 1 2 1 -0 -0 -1 -1 -1 -1 -1 0 0 -1 -2 -2 -2 -1 -0 -0 -0 0 2 3 3 2 1 -1 -1 -0 0 2 3 4 4 4 3 2 1 0 -1 -2 -3 -3 -3 -2 -1 -0 0 0 1 1 1 1 0 0 -0 -0 -1 -1 -1 -1 -0 -0 -0 -0
Height
5898 5898 5898 5898 5898 5898 5898 5898 5898 5898 5898 5898 5898 5898 5898 5898 5898 5898 5898 5898 5897 5897 5897 5897 5897 5897 5897 5897 5897 5897 5897 5897 5897 5897 5897 5896 5896 5896 5896 5896 5895 5895 5895 5895 5894 5894 5894 5894 5893 5893 5893 5892 5892 5891 5891 5890 5890 5890 5889 5889 5888 5888 5887 5887 5887 5886 5886 5885 5885 5884 5884 5883 5883 5882 5882 5881 5880 5880 5879 5879 5878 5878 5877 5876 5876 5875 5875 5874 5874 5873 5872 5872 5871 5870 5870 5870 5869 5868 5867 5867 5866 5865 5865
5897 5897 5897 5897 5897 5898 5898 5898 5897 5897 5897 5897 5897 5897 5897 5897 5897 5897 5897 5897 5897 5897 5897 5897 5896 5896 5896 5896 5896 5896 5896 5896 5896 5896 5896 5896 5896 5895 5895 5895 5895 5895 5895 5894 5894 5893 5893 5893 5893 5892 5892 5891 5891 5890 5890 5890 5889 5889 5889 5888 5888 5887 5887 5886 5886 5885 5885 5885 5884 5884 5883 5883 5882 5881 5881 5880 5880 5879 5879 5878 5877 5877 5876 5876 5875 5875 5874 5874 5873 5872 5872 5871 5870 5870 5869 5869 5868 5867 5866 5866 5865 5865 5864
5897 5897 5897 5897 5897 5897 5897 5897 5897 5897 5897 5897 5897 5897 5897 5897 5897 5897 5896 5896 5896 5896 5896 5896 5896 5896 5896 5896 5895 5895 5895 5895 5895 5895 5895 5895 5895 5895 5895 5895 5894 5894 5894 5894 5893 5893 5892 5892 5892 5891 5891 5891 5890 5890 5890 5889 5889 5888 5888 5887 5887 5886 5886 5885 5885 5885 5884 5884 5883 5883 5882 5882 5881 5880 5880 5880 5879 5878 5878 5877 5877 5876 5875 5875 5875 5874 5873 5873 5872 5872 5871 5870 5870 5869 5868 5868 5867 5867 5866 5865 5865 5864 5863
5896 5896 5896 5896 5896 5897 5897 5897 5897 5896 5896 5896 5896 5896 5896 5896 5896 5896 5896 5896 5896 5896 5896 5895 5895 5895 5895 5895 5895 5895 5895 5895 5895 5895 5895 5894 5894 5894 5894 5894 5894 5893 5893 5893 5893 5892 5892 5892 5891 5891 5890 5890 5890 5890 5889 5889 5888 5888 5887 5887 5886 5885 5885 5885 5884 5884 5883 5883 5882 5882 5881 5881 5880 5880 5879 5879 5878 5878 5877 5876 5876 5875 5875 5874 5874 5873 5873 5872 5872 5871 5870 5870 5869 5869 5868 5867 5866 5866 5865 5864 5863 5863 5862
5895 5896 5896 5896 5896 5896 5896 5896 5896 5896 5896 5896 5896 5896 5896 5896 5896 5896 5895 5895 5895 5895 5895 5895 5895 5895 5895 5895 5894 5894 5894 5894 5894 5894 5894 5894 5893 5893 5893 5893 5893 5893 5892 5892 5892 5892 5891 5891 5891 5890 5890 5890 5889 5889 5888 5888 5887 5887 5886 5886 5885 5885 5884 5884 5883 5883 5882 5882 5881 5881 5880 5880 5879 5879 5878 5878 5877 5877 5876 5875 5875 5875 5874 5873 5873 5872 5872 5871 5871 5870 5870 5869 5868 5868 5867 5866 5865 5865 5864 5863 5863 5862 5861
5895 5895 5895 5895 5896 5896 5896 5896 5896 5896 5896 5896 5896 5895 5895 5895 5895 5895 5895 5895 5895 5895 5895 5895 5894 5894 5894 5894 5894 5894 5893 5893 5893 5893 5893 5893 5893 5893 5892 5892 5892 5892 5892 5891 5891 5891 5891 5890 5890 5890 5890 5889 5889 5888 5888 5887 5887 5886 5886 5885 5885 5884 5884 5883 5882 5882 5881 5881 5880 5880 5880 5879 5879 5878 5877 5877 5876 5876 5875 5875 5874 5874 5873 5873 5872 5872 5871 5870 5870 5870 5869 5868 5868 5867 5866 5865 5865 5864 5863 5862 5862 5861 5860
5895 5895 5895 5895 5895 5895 5895 5895 5895 5895 5895 5895 5895 5895 5895 5895 5895 5895 5895 5895 5895 5894 5894 5894 5894 5894 5894 5893 5893 5893 5893 5893 5893 5892 5892 5892 5892 5892 5892 5891 5891 5891 5891 5891 5890 5890 5890 5890 5890 5889 5889 5888 5888 5887 5887 5886 5886 5885 5885 5885 5884 5883 5883 5882 5882 5881 5881 5880 5880 5879 5879 5878 5878 5877 5877 5876 5875 5875 5875 5874 5873 5873 5872 5872 5871 5871 5870 5870 5869 5869 5868 5867 5867 5866 5865 5865 5864 5863 5862 5861 5860 5860 5859
5894 5894 5895 5895 5895 5895 5895 5895 5895 5895 5895 5895 5895 5895 5895 5895 5895 5894 5894 5894 5894 5894 5894 5894 5893 5893 5893 5893 5893 5892 5892 5892 5892 5892 5892 5891 5891 5891 5891 5891 5890 5890 5890 5890 5890 5890 5889 5889 5889 5888 5888 5888 5887 5887 5886 5886 5885 5885 5884 5884 5883 5883 5882 5882 5881 5880 5880 5880 5879 5879 5878 5877 5877 5876 5876 5875 5875 5874 5874 5873 5873 5872 5872 5871 5870 5870 5870 5869 5868 5868 5867 5866 5866 5865 5865 5864 5863 5862 5861 5860 5860 5859 5858
5893 5894 5894 5894 5894 5895 5895 5895 5895 5895 5895 5895 5895 5895 5894 5894 5894 5894 5894 5894 5893 5893 5893 5893 5893 5893 5892 5892 5892 5892 5892 5891 5891 5891 5891 5891 5891 5890 5890 5890 5890 5890 5890 5889 5889 5889 5889 5888 5888 5888 5887 5887 5886 5886 5885 5885 5885 5884 5883 5883 5882 5882 5881 5881 5880 5880 5880 5879 5878 5878 5877 5877 5876 5876 5875 5875 5874 5874 5873 5872 5872 5871 5871 5870 5870 5869 5869 5868 5867 5867 5866 5865 5865 5864 5864 5863 5862 5861 5860 5860 5859 5858 5857
5893 5893 5893 5894 5894 5894 5894 5894 5894 5894 5894 5894 5894 5894 5894 5894 5894 5894 5893 5893 5893 5893 5893 5892 5892 5892 5892 5891 5891 5891 5891 5891 5891 5891 5890 5890 5890 5890 5890 5890 5889 5889 5889 5889 5889 5888 5888 5888 5887 5887 5887 5886 5886 5885 5885 5884 5884 5883 5883 5882 5882 5881 5881 5880 5880 5879 5879 5878 5878 5877 5877 5876 5875 5875 5875 5874 5873 5873 5872 5872 5871 5871 5870 5870 5869 5868 5868 5867 5866 5866 5865 5865 5864 5863 5863 5862 5861 5860 5860 5859 5858 5857 5856
5892 5892 5893 5893 5893 5893 5893 5893 5894 5894 5894 5894 5894 5894 5894 5893 5893 5893 5893 5893 5892 5892 5892 5892 5892 5891 5891 5891 5891 5890 5890 5890 5890 5890 5890 5890 5890 5890 5889 5889 5889 5889 5888 5888 5888 5888 5887 5887 5887 5886 5886 5885 5885 5885 5884 5884 5883 5883 5882 5882 5881 5881 5880 5880 5879 5879 5878 5878 5877 5876 5876 5875 5875 5874 5874 5873 5873 5872 5871 5871 5870 5870 5869 5869 5868 5868 5867 5866 5866 5865 5864 5864 5863 5862 5861 5861 5860 5859 5859 5858 5857 5856 5855
5891 5892 5892 5892 5892 5892 5893 5893 5893 5893 5893 5893 5893 5893 5893 5893 5893 5893 5892 5892 5892 5892 5891 5891 5891 5891 5890 5890 5890 5890 5890 5890 5890 5889 5889 5889 5889 5889 5889 5889 5888 5888 5888 5888 5888 5887 5887 5887 5886 5886 5885 5885 5885 5884 5884 5883 5883 5882 5882 5881 5881 5880 5880 5879 5879 5878 5878 5877 5876 5876 5875 5875 5874 5874 5873 5872 5872 5871 5871 5870 5870 5869 5869 5868 5867 5867 5866 5865 5865 5864 5863 5863 5862 5861 5860 5860 5859 5858 5857 5856 5856 5855 5854
5891 5891 5891 5891 5891 5892 5892 5892 5892 5892 5892 5893 5893 5893 5892 5892 5892 5892 5892 5892 5891 5891 5891 5891 5890 5890 5890 5890 5890 5889 5889 5889 5889 5889 5889 5889 5888 5888 5888 5888 5888 5888 5887 5887 5887 5887 5886 5886 5886 5885 5885 5885 5884 5884 5883 5883 5882 5882 5881 5881 5880 5880 5879 5879 5878 5878 5877 5876 5876 5875 5875 5874 5874 5873 5872 5872 5871 5870 5870 5870 5869 5868 5868 5867 5866 5866 5865 5865 5864 5863 5862 5861 5861 5860 5859 5858 5858 5857 5856 5855 5855 5854 5853
5890 5890 5890 5890 5891 5891 5891 5891 5891 5891 5892 5892 5892 5892 5892 5892 5892 5892 5891 5891 5891 5891 5890 5890 5890 5890 5890 5889 5889 5889 5889 5888 5888 5888 5888 5888 5888 5888 5887 5887 5887 5887 5887 5887 5886 5886 5886 5885 5885 5885 5885 5884 5884 5883 5883 5882 5882 5881 5881 5880 5880 5879 5879 5878 5878 5877 5876 5876 5875 5875 5874 5874 5873 5872 5872 5871 5870 5870 5869 5869 5868 5868 5867 5866 5866 5865 5864 5864 5863 5862 5861 5860 5860 5859 5858 5857 5857 5856 5855 5854 5853 5852 5851
5889 5889 5890 5890 5890 5890 5890 5890 5890 5891 5891 5891 5891 5891 5891 5891 5891 5891 5891 5891 5890 5890 5890 5890 5890 5889 5889 5889 5888 5888 5888 5888 5888 5887 5887 5887 5887 5887 5887 5887 5886 5886 5886 5886 5886 5885 5885 5885 5885 5884 5884 5883 5883 5882 5882 5881 5881 5880 5880 5880 5879 5879 5878 5877 5877 5876 5875 5875 5875 5874 5873 5873 5872 5871 5871 5870 5870 5869 5869 5868 5867 5867 5866 5865 5865 5864 5863 5863 5862 5861 5860 5860 5859 5858 5857 5856 5855 5855 5854 5853 5852 5851 5850
5888 5888 5889 5889 5889 5889 5889 5890 5890 5890 5890 5890 5890 5890 5890 5890 5890 5890 5890 5890 5890 5890 5890 5889 5889 5889 5888 5888 5888 5888 5887 5887 5887 5887 5887 5886 5886 5886 5886 5886 5886 5886 5885 5885 5885 5885 5885 5884 5884 5884 5883 5883 5882 5882 5881 5881 5880 5880 5879 5879 5878 5878 5877 5876 5876 5875 5875 5874 5874 5873 5872 5872 5871 5871 5870 5870 5869 5868 5868 5867 5866 5866 5865 5865 5864 5863 5862 5862 5861 5860 5860 5859 5858 5857 5856 5855 5855 5854 5853 5852 5851 5850 5849
5887 5887 5888 5888 5888 5888 5889 5889 5889 5889 5889 5889 5889 5890 5890 5890 5890 5890 5890 5890 5890 5889 5889 5889 5889 5888 5888 5888 5887 5887 5887 5887 5886 5886 5886 5886 5886 5885 5885 5885 5885 5885 5885 5885 5884 5884 5884 5883 5883 5883 5882 5882 5881 5881 5880 5880 5880 5879 5879 5878 5877 5877 5876 5876 5875 5875 5874 5873 5873 5872 5872 5871 5870 5870 5869 5869 5868 5867 5867 5866 5865 5865 5864 5864 5863 5862 5861 5861 5860 5859 5858 5858 5857 5856 5855 5854 5853 5852 5852 5851 5850 5849 5848
5886 5886 5887 5887 5887 5887 5888 5888 5888 5888 5888 5888 5888 5889 5889 5889 5889 5889 5889 5889 5889 5889 5888 5888 5888 5888 5887 5887 5887 5887 5886 5886 5886 5886 5885 5885 5885 5885 5885 5884 5884 5884 5884 5884 5883 5883 5883 5882 5882 5882 5881 5881 5880 5880 5880 5879 5879 5878 5878 5877 5877 5876 5875 5875 5874 5874 5873 5872 5872 5871 5871 5870 5870 5869 5868 5867 5867 5866 5866 5865 5865 5864 5863 5862 5862 5861 5860 5860 5859 5858 5857 5856 5855 5855 5854 5853 5852 5851 5850 5850 5849 5848 5847
5885 5885 5886 5886 5886 5886 5887 5887 5887 5887 5887 5887 5888 5888 5888 5888 5888 5888 5888 5888 5888 5888 5888 5888 5887 5887 5887 5887 5886 5886 5886 5886 5885 5885 5885 5885 5884 5884 5884 5883 5883 5883 5883 5882 5882 5882 5882 5881 5881 5881 5880 5880 5880 5879 5879 5878 5878 5877 5877 5876 5876 5875 5875 5874 5873 5873 5872 5871 5871 5870 5870 5869 5868 5868 5867 5866 5866 5865 5865 5864 5863 5863 5862 5861 5860 5860 5859 5858 5858 5857 5856 5855 5854 5853 5852 5851 5850 5850 5849 5848 5847 5846 5845
5884 5885 5885 5885 5885 5885 5886 5886 5886 5886 5886 5886 5887 5887 5887 5887 5887 5887 5887 5887 5887 5887 5887 5887 5887 5887 5886 5886 5886 5886 5885 5885 5885 5885 5884 5884 5884 5883 5883 5882 5882 5882 5881 5881 5881 5881 5881 5880 5880 5880 5879 5879 5878 5878 5877 5877 5876 5876 5875 5875 5875 5874 5874 5873 5872 5872 5871 5870 5870 5869 5869 5868 5867 5867 5866 5865 5865 5864 5863 5863 5862 5861 5861 5860 5859 5859 5858 5857 5856 5855 5855 5854 5853 5852 5851 5850 5849 5848 5848 5847 5846 5845 5844
5883 5883 5884 5884 5884 5885 5885 5885 5885 5885 5885 5886 5886 5886 5886 5886 5886 5886 5886 5886 5886 5886 5886 5886 5886 5886 5886 5885 5885 5885 5885 5885 5884 5884 5884 5883 5883 5883 5882 5882 5881 5881 5880 5880 5880 5880 5880 5879 5879 5879 5878 5878 5877 5877 5876 5876 5875 5875 5875 5874 5874 5873 5872 5872 5871 5871 5870 5870 5869 5868 5868 5867 5866 5865 5865 5864 5864 5863 5862 5861 5861 5860 5860 5859 5858 5857 5857 5856 5855 5854 5853 5852 5852 5851 5850 5849 5848 5847 5846 5845 5844 5843 5842
5882 5882 5883 5883 5883 5884 5884 5884 5884 5885 5885 5885 5885 5885 5885 5885 5885 5885 5885 5885 5885 5885 5885 5885 5885 5885 5885 5885 5885 5884 5884 5884 5884 5883 5883 5883 5882 5882 5882 5881 5881 5880 5880 5879 5879 5878 5878 5878 5878 5878 5877 5877 5876 5876 5875 5875 5875 5874 5874 5873 5872 5872 5871 5871 5870 5870 5869 5868 5868 5867 5866 5866 5865 5865 5864 5863 5862 5862 5861 5860 5860 5859 5858 5858 5857 5856 5855 5855 5854 5853 5852 5851 5850 5849 5849 5848 5847 5846 5845 5844 5843 5842 5841
5881 5881 5881 5882 5882 5882 5883 5883 5883 5883 5884 5884 5884 5884 5884 5884 5885 5885 5885 5885 5885 5885 5885 5885 5885 5884 5884 5884 5884 5884 5883 5883 5883 5883 5882 5882 5882 5881 5881 5880 5880 5880 5879 5878 5878 5877 5877 5877 5877 5877 5876 5876 5875 5875 5875 5874 5874 5873 5873 5872 5871 5871 5870 5870 5869 5869 5868 5867 5867 5866 5865 5865 5864 5863 5863 5862 5861 5860 5860 5859 5859 5858 5857 5856 5856 5855 5854 5853 5852 5852 5851 5850 5849 5848 5847 5846 5845 5844 5843 5842 5841 5840 5840
5880 5880 5880 5881 5881 5881 5882 5882 5882 5882 5883 5883 5883 5883 5883 5883 5883 5884 5884 5884 5884 5884 5884 5884 5884 5884 5883 5883 5883 5883 5882 5882 5882 5882 5881 5881 5881 5880 5880 5880 5879 5879 5878 5878 5877 5877 5876 5876 5875 5875 5875 5875 5875 5874 5874 5873 5873 5872 5872 5871 5870 5870 5870 5869 5868 5868 5867 5866 5866 5865 5864 5864 5863 5862 5861 5861 5860 5860 5859 5858 5857 5857 5856 5855 5854 5854 5853 5852 5851 5850 5849 5849 5848 5847 5846 5845 5844 5843 5842 5841 5840 5839 5838
5879 5879 5880 5880 5880 5880 5880 5881 5881 5881 5881 5882 5882 5882 5882 5882 5882 5883 5883 5883 5883 5883 5883 5883 5883 5883 5883 5882 5882 5882 5882 5881 5881 5881 5880 5880 5880 5880 5879 5879 5879 5878 5878 5877 5876 5876 5875 5875 5875 5874 5874 5874 5873 5873 5872 5872 5871 5871 5870 5870 5870 5869 5868 5868 5867 5867 5866 5865 5865 5864 5863 5863 5862 5861 5860 5860 5859 5858 5858 5857 5856 5855 5855 5854 5853 5852 5851 5850 5850 5849 5848 5847 5846 5845 5845 5844 5843 5842 5841 5840 5839 5838 5836
5878 5878 5878 5879 5879 5879 5880 5880 5880 5880 5880 5881 5881 5881 5881 5881 5881 5881 5881 5881 5882 5882 5882 5882 5882 5882 5882 5881 5881 5881 5881 5880 5880 5880 5880 5880 5879 5879 5878 5878 5878 5877 5877 5876 5876 5875 5875 5874 5874 5873 5873 5873 5872 5872 5871 5871 5870 5870 5870 5869 5868 5868 5867 5867 5866 5865 5865 5864 5864 5863 5862 5861 5861 5860 5859 5858 5858 5857 5856 5855 5855 5854 5853 5853 5852 5851 5850 5849 5848 5847 5846 5846 5845 5844 5843 5842 5841 5840 5839 5838 5837 5836 5835
5877 5877 5877 5877 5878 5878 5878 5879 5879 5879 5879 5880 5880 5880 5880 5880 5880 5880 5880 5880 5880 5880 5880 5880 5880 5880 5880 5880 5880 5880 5880 5880 5879 5879 5879 5879 5878 5878 5878 5877 5877 5877 5876 5876 5875 5875 5874 5873 5873 5872 5872 5871 5871 5871 5870 5870 5869 5869 5868 5868 5867 5867 5866 5865 5865 5864 5864 5863 5862 5862 5861 5860 5860 5859 5858 5857 5856 5856 5855 5854 5854 5853 5852 5851 5850 5850 5849 5848 5847 5846 5845 5844 5843 5843 5842 5841 5840 5839 5838 5837 5836 5835 5834
5876 5876 5876 5876 5877 5877 5877 5877 5878 5878 5878 5878 5879 5879 5879 5879 5879 5879 5879 5879 5879 5879 5879 5879 5879 5879 5879 5879 5879 5879 5878 5878 5878 5878 5878 5877 5877 5877 5876 5876 5876 5875 5875 5875 5874 5874 5873 5872 5872 5871 5871 5870 5870 5870 5869 5869 5868 5868 5867 5867 5866 5865 5865 5864 5864 5863 5862 5862 5861 5860 5860 5859 5858 5858 5857 5856 5855 5855 5854 5853 5852 5851 5851 5850 5849 5848 5847 5846 5845 5845 5844 5843 5842 5841 5840 5839 5838 5837 5836 5835 5834 5833 5832
5875 5875 5875 5875 5875 5876 5876 5876 5876 5877 5877 5877 5877 5877 5878 5878 5878 5878 5878 5878 5878 5878 5878 5878 5878 5878 5878 5878 5877 5877 5877 5877 5876 5876 5876 5876 5875 5875 5875 5875 5875 5874 5874 5874 5873 5873 5872 5872 5871 5870 5870 5869 5869 5868 5868 5868 5867 5867 5866 5865 5865 5864 5864 5863 5862 5862 5861 5860 5860 5859 5858 5858 5857 5856 5855 5855 5854 5853 5852 5852 5851 5850 5850 5849 5848 5847 5846 5845 5844 5843 5842 5841 5840 5840 5839 5838 5837 5836 5835 5834 5833 5831 5830
5874 5874 5874 5874 5875 5875 5875 5875 5875 5875 5875 5876 5876 5876 5876 5876 5876 5877 5877 5877 5877 5877 5877 5877 5877 5877 5876 5876 5876 5876 5876 5875 5875 5875 5875 5875 5874 5874 5874 5874 5873 5873 5873 5873 5872 5872 5871 5871 5870 5870 5869 5868 5868 5867 5867 5866 5866 5865 5865 5865 5864 5863 5862 5862 5861 5860 5860 5859 5858 5858 5857 5856 5855 5855 5854 5853 5853 5852 5851 5850 5850 5849 5848 5847 5846 5845 5845 5844 5843 5842 5840 5840 5839 5838 5837 5836 5835 5834 5833 5832 5831 5830 5829
5873 5873 5873 5873 5874 5874 5874 5874 5874 5874 5875 5875 5875 5875 5875 5875 5875 5875 5875 5875 5875 5875 5875 5875 5875 5875 5875 5875 5875 5875 5875 5874 5874 5874 5874 5873 5873 5873 5873 5872 5872 5872 5872 5871 5871 5871 5870 5870 5869 5869 5868 5867 5867 5866 5865 5865 5865 5864 5864 5863 5863 5862 5861 5860 5860 5859 5858 5858 5857 5856 5855 5855 5854 5853 5852 5852 5851 5850 5850 5849 5848 5847 5846 5845 5845 5844 5843 5842 5841 5840 5839 5838 5837 5836 5835 5835 5834 5832 5831 5830 5829 5828 5827
5871 5872 5872 5872 5873 5873 5873 5873 5873 5873 5873 5873 5874 5874 5874 5874 5874 5874 5874 5874 5874 5874 5874 5874 5874 5874 5874 5874 5874 5874 5873 5873 5873 5873 5872 5872 5872 5871 5871 5871 5871 5870 5870 5870 5870 5870 5870 5869 5868 5868 5867 5866 5866 5865 5865 5864 5864 5863 5862 5862 5861 5861 5860 5859 5859 5858 5857 5856 5855 5855 5854 5853 5853 5852 5851 5850 5850 5849 5848 5847 5846 5846 5845 5844 5843 5842 5841 5840 5839 5838 5837 5836 5835 5835 5834 5833 5832 5830 5830 5828 5827 5826 5825
5870 5870 5871 5871 5871 5872 5872 5872 5872 5872 5872 5872 5872 5872 5873 5873 5873 5873 5873 5873 5873 5873 5873 5873 5873 5872 5872 5872 5872 5872 5872 5872 5871 5871 5871 5871 5870 5870 5870 5870 5870 5869 5869 5869 5868 5868 5868 5868 5867 5867 5866 5865 5865 5864 5864 5863 5862 5862 5861 5860 5860 5859 5859 5858 5857 5856 5856 5855 5854 5854 5853 5852 5851 5850 5850 5849 5848 5847 5846 5846 5845 5844 5843 5842 5841 5840 5839 5838 5837 5836 5836 5835 5834 5833 5832 5831 5830 5829 5828 5826 5825 5824 5823
5869 5869 5870 5870 5870 5870 5871 5871 5871 5871 5871 5871 5871 5871 5871 5871 5871 5871 5871 5871 5871 5871 5871 5870 5870 5870 5870 5870 5870 5870 5870 5870 5870 5870 5870 5870 5869 5869 5869 5868 5868 5868 5867 5867 5867 5867 5866 5866 5866 5865 5865 5865 5864 5863 5863 5862 5861 5860 5860 5859 5859 5858 5857 5857 5856 5855 5855 5854 5853 5852 5851 5851 5850 5849 5848 5847 5847 5846 5845 5844 5843 5842 5841 5840 5840 5839 5837 5836 5835 5835 5834 5833 5832 5831 5830 5829 5828 5827 5825 5825 5823 5822 5821
5868 5868 5868 5869 5869 5869 5870 5870 5870 5870 5870 5870 5870 5870 5870 5870 5870 5870 5870 5870 5869 5869 5869 5869 5869 5869 5869 5869 5869 5869 5869 5869 5869 5868 5868 5868 5867 5867 5867 5866 5866 5866 5866 5865 5865 5865 5865 5865 5864 5864 5864 5863 5863 5862 5861 5861 5860 5859 5859 5858 5857 5856 5856 5855 5855 5854 5853 5852 5852 5851 5850 5849 5849 5848 5847 5846 5845 5845 5844 5843 5842 5840 5840 5839 5838 5837 5836 5835 5834 5833 5832 5831 5830 5829 5828 5827 5826 5825 5824 5822 5821 5820 5819
5866 5867 5867 5867 5868 5868 5868 5868 5868 5869 5869 5869 5869 5868 5868 5868 5868 5868 5868 5868 5868 5868 5868 5867 5867 5867 5867 5867 5867 5867 5867 5867 5867 5867 5866 5866 5866 5865 5865 5865 5865 5864 5864 5864 5864 5863 5863 5863 5862 5862 5862 5861 5861 5861 5860 5860 5859 5858 5857 5856 5856 5855 5854 5854 5853 5852 5852 5851 5850 5850 5849 5848 5847 5846 5846 5845 5844 5843 5842 5841 5840 5839 5838 5837 5836 5835 5834 5833 5832 5831 5830 5829 5828 5827 5826 5825 5824 5823 5821 5820 5819 5818 5817
5865 5865 5865 5866 5866 5866 5867 5867 5867 5867 5867 5867 5867 5867 5867 5866 5866 5866 5866 5866 5866 5866 5866 5866 5866 5866 5866 5866 5865 5865 5865 5865 5865 5865 5865 5865 5864 5864 5863 5863 5863 5862 5862 5862 5862 5861 5861 5861 5860 5860 5860 5860 5859 5859 5859 5858 5857 5857 5856 5855 5855 5854 5853 5852 5851 5851 5850 5849 5849 5848 5847 5846 5846 5845 5844 5844 5843 5842 5841 5840 5839 5838 5837 5836 5835 5834 5833 5832 5830 5830 5828 5827 5826 5825 5824 5823 5822 5820 5819 5818 5817 5816 5815
5864 5864 5864 5865 5865 5865 5865 5865 5865 5865 5865 5865 5866 5866 5865 5865 5865 5865 5865 5865 5865 5865 5865 5865 5865 5865 5865 5865 5864 5864 5864 5863 5863 5863 5863 5863 5863 5862 5862 5861 5861 5860 5860 5860 5860 5860 5859 5859 5859 5859 5858 5858 5858 5857 5857 5856 5856 5855 5854 5854 5853 5852 5851 5851 5850 5849 5849 5848 5847 5846 5845 5845 5844 5844 5843 5842 5841 5840 5840 5838 5837 5836 5835 5834 5833 5832 5831 5830 5829 5828 5827 5826 5825 5824 5823 5821 5820 5818 5817 5816 5815 5814 5813
5862 5863 5863 5863 5864 5864 5864 5864 5864 5864 5864 5864 5864 5864 5864 5864 5864 5864 5864 5864 5864 5864 5864 5864 5864 5864 5863 5863 5863 5863 5862 5862 5862 5861 5861 5861 5861 5861 5860 5860 5860 5859 5859 5858 5858 5858 5857 5857 5857 5857 5856 5856 5856 5855 5855 5855 5854 5853 5853 5852 5851 5850 5850 5849 5849 5848 5847 5846 5845 5845 5844 5843 5842 5842 5841 5840 5840 5839 5838 5837 5836 5835 5834 5833 5832 5830 5830 5828 5827 5826 5825 5824 5823 5822 5821 5820 5818 5817 5815 5814 5813 5812 5811
5861 5861 5862 5862 5862 5862 5863 5863 5863 5863 5863 5862 5863 5863 5863 5863 5863 5863 5863 5862 5862 5862 5862 5862 5862 5862 5862 5862 5861 5861 5861 5861 5860 5860 5860 5860 5860 5859 5859 5859 5858 5858 5857 5857 5856 5856 5856 5855 5855 5855 5855 5854 5854 5854 5853 5852 5852 5851 5851 5850 5850 5849 5848 5847 5847 5846 5845 5845 5844 5843 5842 5841 5841 5840 5839 5838 5837 5837 5836 5835 5834 5833 5832 5831 5830 5829 5828 5827 5825 5825 5823 5822 5821 5820 5819 5818 5817 5815 5814 5812 5811 5810 5809
5860 5860 5860 5861 5861 5861 5861 5861 5861 5861 5861 5861 5861 5861 5861 5861 5861 5861 5861 5861 5861 5861 5861 5861 5861 5861 5860 5860 5860 5860 5860 5860 5859 5859 5858 5858 5858 5858 5857 5857 5857 5856 5856 5855 5855 5854 5854 5854 5853 5853 5852 5852 5852 5851 5851 5850 5850 5849 5849 5848 5847 5847 5846 5845 5845 5844 5844 5843 5842 5841 5840 5840 5839 5838 5837 5836 5835 5835 5834 5833 5832 5831 5830 5829 5828 5827 5826 5825 5824 5823 5821 5820 5819 5818 5817 5816 5815 5814 5812 5811 5809 5808 5807
5859 5859 5859 5859 5860 5860 5860 5860 5860 5860 5860 5860 5860 5860 5860 5860 5859 5859 5859 5859 5859 5859 5859 5859 5859 5859 5859 5859 5859 5858 5858 5858 5858 5857 5857 5856 5856 5856 5856 5855 5855 5855 5854 5854 5853 5853 5852 5852 5851 5851 5850 5850 5850 5849 5849 5848 5848 5847 5846 5846 5845 5845 5844 5843 5843 5842 5841 5841 5840 5839 5838 5837 5837 5836 5835 5834 5833 5832 5831 5830 5830 5829 5828 5827 5826 5825 5824 5823 5821 5820 5819 5818 5817 5816 5815 5814 5813 5811 5810 5809 5807 5806 5805
5857 5857 5858 5858 5858 5858 5858 5859 5859 5859 5859 5859 5858 5858 5858 5858 5858 5857 5857 5857 5857 5857 5857 5858 5858 5857 5857 5857 5857 5857 5856 5856 5856 5855 5855 5855 5855 5854 5854 5854 5853 5853 5852 5852 5851 5851 5850 5850 5849 5849 5848 5848 5848 5847 5847 5846 5845 5845 5844 5844 5843 5842 5842 5841 5840 5840 5839 5838 5838 5837 5836 5835 5835 5834 5833 5832 5831 5830 5829 5828 5827 5827 5826 5825 5824 5823 5822 5820 5820 5818 5817 5816 5815 5814 5813 5811 5810 5809 5808 5807 5805 5804 5803
5856 5856 5856 5856 5856 5856 5856 5857 5857 5857 5857 5857 5857 5857 5856 5856 5856 5856 5855 5855 5855 5855 5855 5855 5856 5855 5855 5855 5855 5855 5855 5855 5854 5854 5853 5853 5853 5852 5852 5852 5851 5851 5850 5850 5849 5849 5848 5848 5847 5847 5846 5846 5845 5845 5844 5844 5843 5843 5842 5841 5841 5840 5839 5839 5838 5837 5837 5836 5835 5835 5834 5833 5832 5831 5831 5830 5829 5828 5827 5826 5825 5824 5824 5823 5822 5820 5820 5818 5817 5816 5815 5814 5813 5812 5810 5809 5808 5807 5806 5805 5804 5802 5800
5854 5854 5855 5855 5855 5855 5855 5855 5855 5855 5855 5855 5855 5855 5855 5854 5854 5854 5854 5853 5853 5853 5853 5853 5853 5853 5853 5853 5853 5853 5853 5852 5852 5852 5851 5851 5851 5851 5850 5850 5850 5849 5849 5848 5848 5847 5846 5846 5845 5845 5844 5844 5843 5843 5842 5841 5841 5840 5840 5839 5839 5838 5837 5836 5836 5835 5835 5834 5833 5833 5832 5831 5830 5830 5829 5828 5827 5826 5825 5824 5823 5822 5821 5820 5819 5818 5817 5816 5815 5814 5813 5812 5810 5809 5808 5807 5806 5805 5804 5803 5801 5800 5799
5852 5853 5853 5853 5853 5853 5853 5853 5853 5853 5853 5853 5853 5853 5853 5852 5852 5852 5852 5851 5851 5851 5851 5851 5851 5851 5850 5850 5850 5850 5850 5850 5850 5850 5849 5849 5849 5849 5849 5849 5848 5848 5847 5846 5846 5845 5845 5844 5843 5843 5842 5842 5841 5841 5840 5840 5839 5838 5838 5837 5836 5836 5835 5834 5834 5833 5832 5831 5831 5830 5830 5829 5828 5827 5826 5825 5825 5824 5823 5822 5821 5820 5819 5818 5817 5816 5815 5814 5812 5811 5810 5809 5808 5807 5806 5805 5804 5803 5802 5800 5799 5798 5796
5850 5851 5851 5851 5851 5851 5851 5851 5851 5851 5851 5851 5851 5851 5850 5850 5850 5850 5850 5849 5849 5849 5849 5849 5849 5848 5848 5848 5848 5848 5848 5848 5847 5847 5847 5847 5847 5847 5847 5847 5846 5846 5845 5845 5844 5844 5843 5842 5842 5841 5841 5840 5840 5839 5838 5837 5837 5836 5836 5835 5835 5834 5833 5832 5831 5830 5830 5829 5828 5828 5827 5826 5825 5825 5824 5823 5822 5821 5820 5820 5819 5818 5816 5815 5815 5813 5812 5811 5810 5809 5808 5807 5806 5805 5804 5802 5801 5800 5799 5798 5797 5796 5794
5848 5849 5849 5849 5849 5849 5849 5849 5849 5849 5849 5849 5849 5849 5848 5848 5848 5848 5847 5847 5847 5847 5847 5846 5846 5846 5846 5845 5845 5845 5845 5845 5845 5845 5844 5844 5844 5845 5845 5845 5845 5844 5844 5843 5842 5842 5841 5841 5840 5840 5839 5838 5838 5837 5836 5835 5835 5834 5834 5833 5832 5832 5831 5830 5829 5828 5827 5827 5826 5825 5825 5824 5823 5822 5821 5820 5820 5819 5818 5817 5816 5815 5814 5813 5812 5811 5810 5809 5808 5807 5805 5805 5803 5802 5801 5800 5799 5798 5797 5796 5795 5793 5792
5846 5846 5846 5846 5846 5846 5846 5847 5847 5847 5847 5847 5846 5846 5846 5846 5846 5845 5845 5845 5845 5845 5845 5844 5844 5844 5843 5843 5843 5842 5842 5842 5842 5842 5842 5842 5842 5842 5842 5843 5842 5842 5841 5841 5841 5840 5840 5839 5839 5838 5837 5837 5836 5835 5834 5834 5833 5832 5831 5831 5830 5830 5829 5828 5827 5826 5825 5825 5824 5823 5822 5821 5820 5820 5819 5818 5817 5816 5815 5815 5814 5813 5812 5811 5810 5809 5808 5807 5805 5805 5803 5802 5801 5800 5799 5798 5797 5795 5795 5793 5792 5791 5790
5844 5844 5844 5844 5844 5844 5844 5844 5844 5844 5844 5844 5844 5844 5844 5843 5843 5843 5843 5843 5843 5842 5842 5842 5842 5841 5841 5840 5840 5840 5840 5840 5839 5839 5839 5839 5839 5840 5840 5840 5840 5840 5839 5839 5839 5838 5838 5837 5837 5836 5836 5835 5834 5833 5832 5831 5831 5830 5829 5829 5828 5827 5826 5825 5825 5824 5823 5822 5821 5820 5820 5819 5818 5817 5816 5815 5815 5814 5813 5812 5811 5810 5809 5808 5807 5806 5805 5804 5803 5802 5801 5800 5799 5797 5796 5795 5794 5793 5792 5791 5789 5788 5787
5841 5841 5842 5842 5842 5842 5842 5842 5842 5842 5842 5842 5841 5841 5841 5841 5841 5841 5840 5840 5840 5840 5840 5840 5839 5839 5839 5838 5837 5837 5837 5837 5837 5837 5836 5836 5837 5837 5837 5837 5837 5837 5837 5836 5836 5836 5835 5835 5835 5834 5833 5833 5832 5831 5830 5829 5829 5828 5827 5826 5825 5825 5824 5823 5822 5822 5821 5820 5819 5819 5818 5817 5816 5815 5815 5814 5813 5812 5811 5810 5809 5808 5807 5805 5805 5803 5802 5801 5800 5800 5799 5797 5796 5795 5794 5793 5792 5790 5789 5788 5786 5785 5784
5839 5839 5839 5839 5839 5839 5839 5839 5839 5839 5839 5839 5839 5839 5838 5838 5838 5838 5838 5838 5838 5837 5837 5837 5837 5836 5836 5835 5835 5835 5835 5835 5835 5835 5834 5834 5835 5835 5835 5835 5835 5835 5834 5834 5833 5833 5833 5832 5832 5831 5831 5830 5829 5829 5828 5827 5826 5825 5825 5824 5823 5822 5822 5821 5820 5819 5819 5818 5817 5816 5816 5815 5814 5813 5812 5812 5811 5810 5809 5808 5806 5805 5804 5803 5802 5801 5800 5799 5798 5797 5796 5795 5794 5793 5791 5790 5789 5788 5787 5785 5784 5782 5781
5836 5836 5836 5836 5836 5836 5836 5836 5836 5836 5837 5836 5836 5836 5835 5835 5835 5835 5835 5835 5835 5835 5835 5835 5834 5834 5833 5833 5832 5832 5832 5832 5832 5832 5832 5832 5832 5832 5833 5833 5832 5832 5832 5831 5830 5830 5830 5829 5829 5828 5828 5827 5826 5825 5825 5825 5824 5823 5822 5821 5820 5820 5819 5818 5818 5817 5816 5815 5815 5814 5813 5813 5812 5811 5810 5810 5809 5808 5806 5805 5804 5803 5801 5800 5799 5798 5797 5796 5795 5794 5793 5792 5791 5790 5789 5788 5787 5785 5784 5783 5781 5780 5779
5833 5833 5833 5833 5833 5833 5833 5834 5834 5834 5834 5834 5833 5833 5833 5833 5833 5832 5832 5832 5832 5832 5832 5832 5831 5831 5831 5830 5830 5830 5829 5830 5830 5829 5829 5830 5830 5830 5829 5830 5830 5829 5829 5829 5828 5827 5826 5826 5825 5825 5825 5824 5824 5823 5822 5822 5821 5820 5820 5819 5818 5817 5817 5816 5815 5815 5814 5813 5812 5812 5811 5810 5810 5809 5808 5807 5806 5805 5804 5803 5802 5800 5799 5798 5797 5796 5795 5794 5793 5792 5791 5790 5789 5788 5787 5785 5784 5783 5781 5780 5779 5777 5776
5831 5830 5830 5830 5830 5830 5830 5830 5831 5831 5831 5831 5830 5830 5830 5830 5830 5830 5830 5829 5829 5829 5829 5829 5829 5829 5828 5828 5827 5827 5827 5827 5827 5827 5827 5827 5827 5827 5827 5826 5826 5826 5825 5826 5825 5825 5824 5824 5823 5822 5821 5822 5821 5820 5820 5819 5818 5818 5817 5816 5816 5815 5814 5813 5813 5812 5811 5810 5810 5809 5808 5808 5807 5806 5805 5805 5804 5803 5801 5800 5799 5798 5797 5796 5795 5794 5793 5791 5790 5789 5788 5787 5786 5785 5784 5783 5781 5780 5778 5777 5776 5775 5774
5828 5828 5828 5828 5828 5828 5828 5828 5828 5828 5828 5828 5828 5827 5827 5827 5827 5827 5827 5827 5826 5826 5826 5826 5826 5826 5826 5825 5825 5825 5825 5825 5825 5825 5825 5824 5824 5825 5824 5824 5824 5823 5823 5822 5822 5822 5821 5820 5820 5819 5818 5819 5819 5817 5817 5816 5816 5815 5815 5814 5813 5812 5811 5811 5810 5809 5808 5807 5807 5806 5805 5805 5804 5803 5803 5802 5801 5800 5798 5797 5796 5795 5794 5793 5792 5791 5790 5789 5788 5787 5786 5785 5784 5783 5782 5780 5779 5777 5776 5775 5773 5772 5771
5825 5825 5825 5825 5825 5825 5825 5825 5825 5825 5825 5825 5825 5825 5824 5824 5824 5824 5824 5824 5824 5824 5823 5823 5823 5823 5823 5823 5823 5822 5822 5822 5822 5822 5822 5822 5822 5822 5822 5821 5820 5820 5820 5819 5819 5818 5817 5818 5817 5816 5815 5816 5816 5815 5814 5814 5813 5813 5812 5811 5810 5810 5809 5808 5807 5806 5805 5805 5804 5803 5803 5802 5801 5800 5800 5799 5798 5796 5795 5794 5793 5792 5791 5790 5789 5788 5787 5786 5785 5784 5783 5782 5781 5780 5779 5777 5776 5774 5773 5772 5770 5769 5768
5823 5823 5822 5822 5822 5822 5822 5822 5822 5822 5822 5822 5822 5822 5822 5822 5822 5822 5821 5821 5821 5821 5820 5821 5820 5820 5820 5820 5820 5820 5820 5819 5819 5820 5820 5820 5820 5819 5819 5818 5818 5817 5817 5816 5816 5815 5814 5814 5814 5814 5812 5812 5812 5812 5812 5810 5810 5810 5810 5809 5808 5807 5806 5805 5805 5804 5803 5802 5801 5801 5800 5799 5798 5797 5796 5795 5794 5793 5792 5790 5790 5789 5788 5787 5786 5785 5784 5783 5782 5781 5780 5779 5778 5777 5775 5774 5773 5771 5770 5769 5768 5766 5765
5820 5820 5820 5820 5820 5820 5820 5820 5820 5819 5819 5819 5819 5819 5819 5819 5819 5819 5819 5818 5818 5818 5818 5818 5818 5818 5818 5818 5818 5818 5817 5817 5817 5817 5817 5817 5817 5817 5816 5815 5815 5815 5814 5813 5813 5812 5811 5811 5810 5810 5810 5809 5809 5808 5809 5808 5807 5807 5807 5806 5805 5805 5804 5803 5802 5801 5800 5800 5799 5798 5797 5796 5796 5795 5793 5792 5791 5790 5788 5787 5786 5786 5785 5784 5783 5783 5781 5780 5780 5778 5777 5776 5775 5774 5773 5771 5770 5769 5767 5766 5765 5764 5763
5816 5816 5816 5816 5816 5816 5816 5816 5816 5816 5816 5816 5816 5816 5816 5816 5816 5815 5815 5815 5815 5816 5816 5816 5815 5815 5815 5815 5815 5816 5815 5815 5815 5815 5815 5814 5814 5814 5813 5813 5812 5811 5811 5810 5810 5809 5809 5808 5807 5807 5807 5806 5806 5805 5805 5805 5805 5804 5804 5803 5803 5802 5801 5800 5800 5798 5797 5797 5796 5796 5795 5794 5793 5792 5790 5789 5788 5786 5785 5784 5783 5783 5782 5781 5780 5780 5779 5778 5777 5776 5775 5773 5772 5771 5770 5768 5767 5766 5765 5763 5762 5761 5760
5813 5813 5813 5812 5813 5813 5813 5813 5813 5813 5813 5813 5814 5813 5813 5813 5813 5813 5813 5813 5813 5813 5813 5813 5813 5813 5813 5813 5813 5813 5813 5813 5813 5812 5812 5812 5811 5810 5810 5810 5809 5809 5808 5807 5807 5806 5806 5805 5805 5804 5804 5803 5802 5802 5802 5802 5802 5801 5801 5800 5800 5799 5798 5797 5796 5795 5795 5794 5793 5793 5792 5791 5790 5789 5788 5786 5785 5783 5782 5781 5780 5780 5779 5778 5778 5777 5776 5775 5774 5773 5772 5770 5769 5768 5767 5765 5764 5763 5762 5760 5760 5758 5757